Flag for Canada Weather past 2 weeks in MD of Lunenburg, Nova Scotia, Canada

Now
36 °F

Chilly.


Feels Like: 30 °F
Forecast: 35 / 46 °F
Wind: 8 mph from Southeast

Location: McNabs Island - AUT

Current Time: Apr 25, 2015 at 2:04:59 PM

Latest Report: Apr 25, 2015 at 1:00 PM


Visibility: N/A

Pressure: 29.62 "Hg

Humidity: 97%

Dew point: 36 °F

Location of MD of LunenburgLocation

Historic Weather in MD of Lunenburg — Graph

°F

MD of Lunenburg temperature yesterday

Maximum temperature yesterday: 45 °F (at 5:00 PM)
Minimum temperature yesterday: 33 °F (at 11:00 AM)
Average temperature yesterday: 36 °F

Past Weeks' High & Low Weather Summary

 TemperatureHumidityPressure
High57 °F (Apr 15, 1:00 PM)100% (Apr 10, 2:00 PM)30.39 "Hg (Apr 10, 2:00 PM)
Low28 °F (Apr 16, 6:00 AM)31% (Apr 16, 6:00 PM)29.47 "Hg (Apr 11, 3:00 PM)
Average40 °F81%29.96 "Hg
* Reported Apr 10 1:00 PM — Apr 25 1:00 PM, MD of Lunenburg, Weather by CustomWeather, © 2015

Note: Actual official high and low records may vary slightly from our data, if they occured in-between our weather recording intervals... More about our weather records

Advertising

MD of Lunenburg weather history for previous 24 hours

 ConditionsComfort  
Time TempWeatherWind HumidityBarometerVisibility
1:00 PM
Sat, Apr 25
36 °FChilly.8 mph97%29.62 "HgN/A
12:00 PM40 °FChilly.10 mph89%29.61 "HgN/A
11:00 AM38 °FChilly.9 mph94%29.61 "HgN/A
10:00 AM36 °FChilly.6 mph95%29.61 "HgN/A
9:00 AM36 °FChilly.3 mph97%29.61 "HgN/A
8:00 AM38 °FChilly.1 mph98%29.60 "HgN/A
7:00 AM33 °FChilly.1 mph100%29.59 "HgN/A
6:00 AM34 °FChilly.3 mph99%29.58 "HgN/A
5:00 AM34 °FChilly.2 mph99%29.58 "HgN/A
4:00 AM35 °FChilly.1 mph99%29.59 "HgN/A
3:00 AM34 °FChilly.3 mph99%29.59 "HgN/A
2:00 AM31 °FChilly.2 mph100%29.58 "HgN/A
1:00 AM33 °FChilly.2 mph99%29.58 "HgN/A
12:00 AM34 °FChilly.1 mph99%29.57 "HgN/A
11:00 PM
Fri, Apr 24
35 °FChilly.1 mph97%29.57 "HgN/A
10:00 PM36 °FChilly.5 mph97%29.57 "HgN/A
8:00 PM36 °FChilly.5 mph98%29.54 "HgN/A
7:00 PM37 °FChilly.12 mph95%29.54 "HgN/A
6:00 PM38 °FChilly.14 mph91%29.53 "HgN/A
5:00 PM45 °FCool.5 mph77%29.52 "HgN/A
4:00 PM40 °FQuite cool.8 mph91%29.52 "HgN/A
3:00 PM38 °FChilly.8 mph95%29.52 "HgN/A
2:00 PM38 °FChilly.7 mph96%29.53 "HgN/A
Weather by CustomWeather, © 2015

See weather overviewHow to use our weather pages